Location: Audinghen
(50.8518°N, 1.6129°E)
Time: 05:44:15
(UTC+00:00)

Cosmos 2195 Rocket - Pass Details

Date: 07 August 2020
Orbit: 949 x 993 km, 82.9° (Epoch: 23 September)

Event Time Altitude Azimuth Distance (km) Brightness Sun altitude
Rises 01:25:09 0° 348° (NNW) 3,697 8.5 -20.2°
Reaches altitude 10° 01:27:40 10° 347° (NNW) 2,751 7.6 -20.1°
Maximum altitude 01:33:58 74° 264° (W) 1,034 4.5 -19.7°
Enters shadow 01:37:07 32° 187° (S) 1,646 5.2 -19.5°
